Find Daichi

NORAD ID: 28931 Int'l Des: 2006-002 Owner: JAXA Country: J operational
LEOCIRCULARRETROGRADESSO

リアルタイム位置

3D地球を読み込み中...

Daichiについて

説明を読み込み中...

次回通過

Passes for default location (London). Set your location on the main map for personalized predictions.

高度履歴

Loading altitude history...

軌道要素

1 28931U 06002A 26137.80057281 .00000606 00000-0 10946-3 0 9996
2 28931 98.1310 93.4680 0002183 82.1521 277.9933 14.69981867 83639
Epoch: May 17, 2026 • Age: 9 hours

現在のステータス

高度 663.3 km
速度 7.53 km/s
衛星直下点 18.42°N, 21.02°W
打ち上げ日 Jan 24, 2006
運用期間 20.3 years
タイプ other

技術仕様

分類 Payload
質量 4000.00 kg
乾燥質量 3800.00 kg
総質量 4000.00 kg
長さ 6.50 m
直径 4.50 m
スパン 28.00 m
形状 Box + 2 Pan
製造者 TSUK/NECTF
バスタイプ ALOS
フェーズステータス In Orbit
所有者/国 JAXA/J

Most Searched